Location: Mannheim
(49.4880°N, 8.4650°E)
Time: 12:29:56
(UTC+02:00)

ISS - Pass Details

Date: 25 September 2022
Orbit: 414 x 417 km, 51.6° (Epoch: 01 October)

Event Time Altitude Azimuth Distance (km) Brightness Sun altitude
Rises 20:31:03 0° 278° (W) 2,363 2.1 -12.6°
Reaches altitude 10° 20:33:10 10° 283° (WNW) 1,499 0.6 -13.0°
Maximum altitude 20:36:30 58° 3° (N) 496 -3.4 -13.5°
Enters shadow 20:38:20 24° 75° (ENE) 927 -2.5 -13.8°
